Regional Weather Roundup
Issued by NWS Newport/Morehead, NC

Current Version | Previous Version | Text Only | Print | Product List | Glossary Off
Versions: 1 2 3 4 5 6 7 8 9 10 11 12 13 14 15 16 17 18 19 20 21 22 23 24 25 26 27 28 29 30 31 32 33 34 35 36 37 38 39 40 41 42 43 44 45 46 47 48 49 50
000 ASUS42 KMHX 280210 RWRMHX WEATHER ROUNDUP FOR EASTERN NORTH CAROLINA NATIONAL WEATHER SERVICE NEWPORT/MOREHEAD CITY NC 900 PM EST TUE JAN 27 2015 NOTE: "FAIR" INDICATES FEW OR NO CLOUDS BELOW 12,000 FEET WITH NO SIGNIFICANT WEATHER AND/OR OBSTRUCTIONS TO VISIBILITY NCZ015>017-031-032-045>047-102-103-280300- NORTH COAST CITY SKY/WX TMP DP RH WIND PRES REMARKS EDENTON CLOUDY 35 30 83 NW8 29.90R ELIZABETH CITY CLOUDY 33 28 81 W10 29.89R KITTY HAWK PTCLDY 35 30 83 NW8 29.85S MANTEO CLOUDY 36 28 75 NW9G16 29.87R $$ NCZ045>047-081-094-103-104-280300- CENTRAL COAST CITY SKY/WX TMP DP RH WIND PRES REMARKS FRISCO CLOUDY 36 30 79 NW10G20 29.87R SWANQUARTER NOT AVBL $$ NCZ095-097-098-100-101-280300- SOUTHERN COAST CITY SKY/WX TMP DP RH WIND PRES REMARKS BEAUFORT CLOUDY 37 30 75 NW10 29.91R CEDAR ISLAND N/A 37 N/A N/A NW20G26 29.88 JACKSONVILLE CLEAR 31 28 89 CALM 29.92R PINEY ISLAND N/A N/A N/A N/A MISG 29.90R WILMINGTON CLEAR 31 29 92 CALM 29.93R $$ NCZ011>013-027>030-043-044-078>080-089-090>093-098-280300- COASTAL PLAIN CITY SKY/WX TMP DP RH WIND PRES REMARKS AHOSKIE CLOUDY 33 29 83 CALM 29.92R CLINTON CLEAR 30 28 94 CALM 29.93R ELIZABETHTOWN CLEAR 32 25 77 CALM 29.93R GOLDSBORO CLEAR 31 30 98 CALM 29.90R GREENVILLE MOCLDY 34 30 86 CALM 29.94R HAVELOCK CLOUDY 36 27 69 NW8 29.92R KENANSVILLE CLEAR 28 27 96 CALM 29.93R KINSTON CLEAR 28 27 93 CALM 29.92R NEW BERN MOCLDY 35 27 72 W5 29.92R RICHLANDS CLEAR 28 25 86 CALM 29.92S ROCKY MOUNT CLEAR 28 25 88 CALM 29.92R WASHINGTON CLOUDY 35 29 79 CALM 29.92R WHITEVILLE CLEAR 33 26 73 CALM 29.93S $$ AMZ130-135-150-152-154-156-158-170-250-252-270-ANZ085-086-088-633-658-670-280300- MARINE OBSERVATIONS STATION/POSITION TIME TEMP WIND PRES WAVE SWELL AIR SEA DIR/SP/G HT/PER HT/PER (UTC) (F) (DEG/KT/KT) (MB) (FT/S) (FT/S) CHESAPEAKE LIGHT 0100 36 320/ 24/ 26 1010.9 64 E VA BEACH 0200 39 51 320/ 21/ 27 1009.2 15/14 13/14 DUCK 0200 35 43 310/ 12/ 15 1010.5 2 E DUCK 0200 43 N/A 8/13 5/13 10 NE DUCK 0200 45 N/A 9/12 7/12 OREGON INLET 0200 36 44 300/ 12/ 18 1011.0 13E OREGON INLT 0200 46 N/A 10/13 8/13 HATTERAS CG 0200 38 48 330/ 19/ 22 1011.7 DIAMOND BUOY 0200 40 69 330/ 21/ 25 1010.5 9/14 7/14 17 S OCRACOKE NOT AVBL CAPE LOOKOUT 0100 39 320/ 12/ 16 1011.8 BEAUFORT LAB 0200 37 48 310/ 6/ 9 1011.7 27 SE WRIGHTSVLE NOT AVBL 5 SE WRIGHTSVLE 0100 44 53 340/ 12/ 14 1012.9 225 S CAPE HAT 0142 55 71 320/ 27/ 37 1009.0 14/ 9 10/ 9 41 SE CHARLESTON 0200 50 67 310/ 17/ 21 1014.3 5/ 5 2/10 $$

USA.gov is the U.S. government's official web portal to all federal, state and local government web resources and services.